W0AVQ Weather Reports


time (UTC)temp
C
wind
direction
speed
KPH
gust
KPH
rain 1hr
cm
rain 24hr
cm
rain mn
cm
humidity
%
barometer
mb
20260906022650 26 246 0.0 0.0 0.00 0.00 0.00 90 1013.8
20260906022146 26 250 0.0 0.0 0.00 0.00 0.00 90 1014.0
20260906021642 26 249 0.0 0.0 0.00 0.00 0.00 90 1013.9
20260906021140 26 246 0.0 0.0 0.00 0.00 0.00 89 1014.0
20260906020635 26 252 0.0 0.0 0.00 0.00 0.00 89 1013.8
20260906020130 26 254 0.0 0.0 0.00 0.00 0.00 88 1013.9
20260906015624 26 254 0.0 0.0 0.00 0.00 0.00 88 1013.8
20260906015122 26 253 0.0 0.0 0.00 0.00 0.00 88 1013.9
20260906014617 26 253 0.0 0.0 0.00 0.00 0.00 88 1013.7
20260906014114 26 254 0.0 0.0 0.00 0.00 0.00 87 1013.8
20260906013609 26 251 0.0 0.0 0.00 0.00 0.00 87 1013.7
20260906013104 27 249 0.0 0.0 0.00 0.00 0.00 86 1013.6
20260906012559 27 249 0.0 0.0 0.00 0.00 0.00 86 1013.5
20260906012059 27 242 0.0 0.0 0.00 0.00 0.00 85 1013.7
20260906011555 27 294 0.0 0.0 0.00 0.00 0.00 85 1013.4
20260906011049 27 246 0.0 0.0 0.00 0.00 0.00 84 1013.5
20260906010545 27 230 0.0 0.0 0.00 0.00 0.00 84 1013.6
20260906010041 27 253 0.0 0.0 0.00 0.00 0.00 81 1013.6
20260906005540 28 266 0.0 0.0 0.00 0.00 0.00 81 1013.3
20260906005039 28 269 0.0 0.0 0.00 0.00 0.00 81 1013.2
20260906004539 28 252 0.0 0.0 0.00 0.00 0.00 80 1013.4
20260906004034 28 235 0.0 0.0 0.00 0.00 0.00 79 1013.3
20260906003529 29 245 0.0 0.0 0.00 0.00 0.00 78 1013.1
20260906003025 30 240 0.0 0.0 0.00 0.00 0.00 75 1013.0
20260906002519 30 254 0.0 0.0 0.00 0.00 0.00 74 1013.2
20260906002014 30 247 0.0 0.0 0.00 0.00 0.00 71 1013.3
20260906001510 31 245 0.0 0.0 0.00 0.00 0.00 71 1013.4
20260906001004 31 252 0.0 0.0 0.00 0.00 0.00 68 1013.3
20260906000500 32 252 0.0 0.0 0.00 0.00 0.00 67 1013.5
20260906000000 32 252 0.0 0.0 0.00 0.00 0.00 66 1013.6
20260905235454 33 253 0.0 0.0 0.00 0.00 0.00 63 1013.7
20260905234949 33 252 0.0 0.0 0.00 0.00 0.00 61 1013.6
20260905234444 33 249 0.0 0.0 0.00 0.00 0.00 60 1013.5
20260905233938 34 295 0.0 0.0 0.00 0.00 0.00 58 1013.8
20260905233434 33 307 0.0 0.0 0.00 0.00 0.00 59 1013.5
20260905232933 33 280 0.0 0.0 0.00 0.00 0.00 58 1013.7
20260905232429 33 306 1.6 1.6 0.00 0.00 0.00 58 1013.6
20260905231925 33 311 1.6 3.2 0.00 0.00 0.00 59 1014.0
20260905231421 33 271 0.0 0.0 0.00 0.00 0.00 58 1013.8
20260905230917 33 271 1.6 3.2 0.00 0.00 0.00 59 1013.7
20260905230415 33 300 0.0 1.6 0.00 0.00 0.00 60 1013.6
20260905225914 33 264 0.0 1.6 0.00 0.00 0.00 60 1013.6
20260905225409 33 254 0.0 0.0 0.00 0.00 0.00 62 1013.5
20260905224904 33 280 0.0 0.0 0.00 0.00 0.00 60 1013.8
20260905224400 33 242 0.0 0.0 0.00 0.00 0.00 63 1013.5
20260905223854 32 271 0.0 1.6 0.00 0.00 0.00 61 1013.4
20260905223351 32 268 0.0 0.0 0.00 0.00 0.00 63 1013.4
20260905222846 32 257 0.0 0.0 0.00 0.00 0.00 64 1013.4
20260905222345 32 249 0.0 0.0 0.00 0.00 0.00 64 1013.5
20260905221841 32 295 0.0 0.0 0.00 0.00 0.00 63 1013.7
20260905221337 32 254 0.0 0.0 0.00 0.00 0.00 64 1013.6
20260905220833 32 263 0.0 0.0 0.00 0.00 0.00 63 1013.7
20260905220329 32 280 0.0 0.0 0.00 0.00 0.00 63 1014.0
20260905215828 32 259 0.0 0.0 0.00 0.00 0.00 63 1014.3
20260905215324 32 259 0.0 0.0 0.00 0.00 0.00 68 1014.1
20260905214821 33 254 0.0 0.0 0.00 0.00 0.00 73 1013.9
20260905214315 33 247 0.0 0.0 0.00 0.00 0.00 70 1013.6
20260905213810 33 246 0.0 0.0 0.00 0.00 0.00 70 1013.7
20260905213307 34 253 0.0 0.0 0.00 0.00 0.00 69 1013.8
20260905212801 34 270 0.0 0.0 0.00 0.00 0.00 66 1013.6
20260905212301 35 247 0.0 0.0 0.00 0.00 0.00 66 1013.8
20260905211756 35 256 0.0 0.0 0.00 0.00 0.00 65 1013.9
20260905211250 35 247 0.0 0.0 0.00 0.00 0.00 64 1014.0
20260905210747 35 247 0.0 0.0 0.00 0.00 0.00 63 1013.5
20260905210247 35 238 0.0 0.0 0.00 0.00 0.00 62 1013.6
20260905205745 35 236 0.0 0.0 0.00 0.00 0.00 64 1013.9
20260905205241 35 240 0.0 0.0 0.00 0.00 0.00 61 1014.0
20260905204740 35 244 0.0 0.0 0.00 0.00 0.00 63 1014.1
20260905204236 35 243 0.0 0.0 0.00 0.00 0.00 62 1013.9
20260905203735 35 267 0.0 0.0 0.00 0.00 0.00 60 1013.9
20260905203231 35 251 0.0 0.0 0.00 0.00 0.00 59 1014.1
20260905202726 35 246 0.0 0.0 0.00 0.00 0.00 59 1014.0
20260905202221 36 242 0.0 0.0 0.00 0.00 0.00 59 1014.0
20260905201716 36 243 0.0 0.0 0.00 0.00 0.00 57 1013.9
20260905201211 36 253 0.0 0.0 0.00 0.00 0.00 57 1014.1
20260905200706 36 226 0.0 0.0 0.00 0.00 0.00 55 1014.2
20260905200202 37 253 0.0 0.0 0.00 0.00 0.00 55 1014.1
20260905195155 37 266 0.0 0.0 0.00 0.00 0.00 52 1014.3
20260905194650 37 223 0.0 0.0 0.00 0.00 0.00 54 1014.4
20260905194149 37 236 0.0 0.0 0.00 0.00 0.00 52 1014.6
20260905193644 37 191 0.0 0.0 0.00 0.00 0.00 53 1014.4
20260905193139 38 324 0.0 0.0 0.00 0.00 0.00 51 1014.7
20260905192634 37 219 0.0 0.0 0.00 0.00 0.00 52 1014.6
20260905192131 38 340 0.0 0.0 0.00 0.00 0.00 52 1014.9
20260905191630 38 162 0.0 0.0 0.00 0.00 0.00 53 1014.7
20260905191129 37 199 0.0 0.0 0.00 0.00 0.00 51 1014.7
20260905190627 37 155 0.0 0.0 0.00 0.00 0.00 55 1014.7
20260905190127 37 200 0.0 0.0 0.00 0.00 0.00 54 1014.8
20260905185626 38 214 0.0 0.0 0.00 0.00 0.00 51 1014.9
20260905185120 38 192 0.0 0.0 0.00 0.00 0.00 51 1015.1
20260905184615 38 220 0.0 0.0 0.00 0.00 0.00 51 1015.1
20260905184114 38 230 0.0 0.0 0.00 0.00 0.00 53 1015.3
20260905183613 38 24 0.0 0.0 0.00 0.00 0.00 53 1015.1
20260905183109 37 276 0.0 0.0 0.00 0.00 0.00 54 1015.2
20260905182608 37 256 0.0 0.0 0.00 0.00 0.00 53 1015.3
20260905182103 37 202 0.0 0.0 0.00 0.00 0.00 53 1015.2
20260905181602 37 329 0.0 0.0 0.00 0.00 0.00 54 1015.3
20260905181102 37 321 0.0 0.0 0.00 0.00 0.00 55 1015.3
20260905180556 37 133 0.0 0.0 0.00 0.00 0.00 53 1015.5
20260905180052 36 249 0.0 0.0 0.00 0.00 0.00 54 1015.6
20260905175551 36 309 0.0 0.0 0.00 0.00 0.00 53 1015.6
20260905175047 36 186 0.0 0.0 0.00 0.00 0.00 54 1015.7
20260905174542 36 289 0.0 0.0 0.00 0.00 0.00 54 1015.8
20260905174037 36 276 0.0 0.0 0.00 0.00 0.00 52 1015.7
20260905173534 36 311 0.0 0.0 0.00 0.00 0.00 54 1015.9
20260905173029 36 342 0.0 0.0 0.00 0.00 0.00 55 1015.9
20260905172527 36 286 0.0 0.0 0.00 0.00 0.00 54 1015.9
20260905172023 36 325 0.0 0.0 0.00 0.00 0.00 54 1015.7
20260905171519 36 303 0.0 0.0 0.00 0.00 0.00 56 1015.7
20260905171015 35 12 0.0 0.0 0.00 0.00 0.00 55 1015.7
20260905170512 35 273 1.6 4.8 0.00 0.00 0.00 56 1016.0
20260905170007 35 244 0.0 0.0 0.00 0.00 0.00 57 1015.9
20260905165501 36 283 0.0 0.0 0.00 0.00 0.00 57 1016.1
20260905164956 36 302 0.0 1.6 0.00 0.00 0.00 57 1016.0
20260905164455 35 261 0.0 0.0 0.00 0.00 0.00 58 1016.3
20260905163950 35 293 0.0 1.6 0.00 0.00 0.00 58 1016.2
20260905163447 35 271 0.0 0.0 0.00 0.00 0.00 59 1016.2
20260905162943 35 259 0.0 0.0 0.00 0.00 0.00 60 1015.9
20260905162438 35 295 0.0 0.0 0.00 0.00 0.00 60 1016.3
20260905161933 35 272 0.0 0.0 0.00 0.00 0.00 61 1016.1
20260905161432 35 269 0.0 0.0 0.00 0.00 0.00 61 1016.3
20260905160930 35 250 0.0 0.0 0.00 0.00 0.00 62 1016.3
20260905160425 34 246 0.0 0.0 0.00 0.00 0.00 63 1016.2
20260905155918 35 306 0.0 0.0 0.00 0.00 0.00 63 1016.2
20260905155418 34 296 0.0 0.0 0.00 0.00 0.00 64 1016.2
20260905154917 33 239 0.0 0.0 0.00 0.00 0.00 65 1016.5
20260905154413 33 306 0.0 0.0 0.00 0.00 0.00 66 1016.3
20260905153909 34 277 0.0 0.0 0.00 0.00 0.00 66 1016.5
20260905153405 33 279 0.0 0.0 0.00 0.00 0.00 65 1016.5
20260905152904 33 25 0.0 0.0 0.00 0.00 0.00 67 1016.2
20260905152403 33 253 0.0 0.0 0.00 0.00 0.00 67 1016.2
20260905151859 33 265 0.0 0.0 0.00 0.00 0.00 66 1016.3
20260905151354 33 279 0.0 0.0 0.00 0.00 0.00 65 1016.1
20260905150849 33 247 0.0 0.0 0.00 0.00 0.00 69 1016.2
20260905150343 32 296 0.0 0.0 0.00 0.00 0.00 69 1016.2
20260905145841 32 306 0.0 0.0 0.00 0.00 0.00 71 1016.1
20260905145340 32 270 0.0 0.0 0.00 0.00 0.00 71 1016.1
20260905144839 32 252 0.0 0.0 0.00 0.00 0.00 73 1016.0
20260905144335 32 261 0.0 0.0 0.00 0.00 0.00 73 1016.0
20260905143833 31 243 0.0 0.0 0.00 0.00 0.00 75 1016.2
20260905143328 31 278 0.0 1.6 0.00 0.00 0.00 73 1016.2
20260905142828 31 324 0.0 0.0 0.00 0.00 0.00 78 1016.4
20260905142321 30 245 0.0 0.0 0.00 0.00 0.00 79 1016.4
20260905141818 30 241 0.0 0.0 0.00 0.00 0.00 78 1016.4
20260905141313 30 284 0.0 0.0 0.00 0.00 0.00 79 1016.2
20260905140809 30 282 0.0 0.0 0.00 0.00 0.00 78 1016.6
20260905140308 30 296 0.0 0.0 0.00 0.00 0.00 79 1016.4
20260905135807 30 278 0.0 0.0 0.00 0.00 0.00 78 1016.5
20260905135306 29 314 0.0 0.0 0.00 0.00 0.00 79 1016.5
20260905134803 29 238 0.0 0.0 0.00 0.00 0.00 82 1016.3
20260905134257 28 252 0.0 0.0 0.00 0.00 0.00 84 1016.3
20260905133751 28 250 0.0 0.0 0.00 0.00 0.00 88 1016.3
20260905133247 28 259 0.0 0.0 0.00 0.00 0.00 91 1016.3
20260905132746 27 280 0.0 0.0 0.00 0.00 0.00 93 1016.2
20260905132241 26 264 0.0 0.0 0.00 0.00 0.00 98 1016.4
20260905131736 26 265 0.0 0.0 0.00 0.00 0.00 99 1016.2
20260905131232 25 253 0.0 0.0 0.00 0.00 0.00 99 1016.4
20260905130726 25 254 0.0 0.0 0.00 0.00 0.00 99 1016.0
20260905130225 25 259 0.0 0.0 0.00 0.00 0.00 99 1016.2
20260905125721 25 260 0.0 0.0 0.00 0.00 0.00 99 1016.3
20260905125215 25 259 0.0 0.0 0.00 0.00 0.00 99 1016.2
20260905124712 25 261 0.0 0.0 0.00 0.00 0.00 99 1016.3
20260905124208 24 261 0.0 0.0 0.00 0.00 0.00 99 1016.0
20260905123702 24 261 0.0 0.0 0.00 0.00 0.00 99 1016.0
20260905123200 23 265 0.0 0.0 0.00 0.00 0.00 99 1016.1
20260905122659 23 265 0.0 0.0 0.00 0.00 0.00 99 1015.8
20260905122154 23 266 0.0 0.0 0.00 0.00 0.00 99 1016.0
20260905121648 23 254 0.0 0.0 0.00 0.00 0.00 99 1016.0
20260905121144 23 254 0.0 0.0 0.00 0.00 0.00 99 1015.8
20260905120643 23 254 0.0 0.0 0.00 0.00 0.00 99 1015.9
20260905120138 23 253 0.0 0.0 0.00 0.00 0.00 99 1015.8
20260905115638 23 257 0.0 0.0 0.00 0.00 0.00 99 1015.9
20260905115133 23 258 0.0 0.0 0.00 0.00 0.00 99 1015.8
20260905114632 23 258 0.0 0.0 0.00 0.00 0.00 99 1015.5
20260905114131 23 258 0.0 0.0 0.00 0.00 0.00 99 1015.7
20260905113626 23 258 0.0 0.0 0.00 0.00 0.00 99 1015.6
20260905113121 23 258 0.0 0.0 0.00 0.00 0.00 99 1015.7
20260905112618 23 258 0.0 0.0 0.00 0.00 0.00 99 1015.5
20260905112112 23 258 0.0 0.0 0.00 0.00 0.00 99 1015.5
20260905111606 23 258 0.0 0.0 0.00 0.00 0.00 99 1015.7
20260905111105 23 258 0.0 0.0 0.00 0.00 0.00 99 1015.6
20260905110604 23 258 0.0 0.0 0.00 0.00 0.00 99 1015.5
20260905110100 23 258 0.0 0.0 0.00 0.00 0.00 99 1015.7
20260905105555 23 259 0.0 0.0 0.00 0.00 0.00 99 1015.3
20260905105054 23 272 0.0 0.0 0.00 0.00 0.00 99 1015.4
20260905104550 23 260 0.0 0.0 0.00 0.00 0.00 99 1015.4
20260905104049 23 261 0.0 0.0 0.00 0.00 0.00 99 1015.5
20260905103544 23 260 0.0 0.0 0.00 0.00 0.00 99 1015.5
20260905103040 23 260 0.0 0.0 0.00 0.00 0.00 99 1015.1
20260905102530 23 262 0.0 0.0 0.00 0.00 0.00 99 1015.1
20260905102027 23 265 0.0 0.0 0.00 0.00 0.00 99 1015.2
20260905101525 23 278 0.0 0.0 0.00 0.00 0.00 99 1015.3
20260905101023 23 245 0.0 0.0 0.00 0.00 0.00 99 1015.3
20260905100520 23 245 0.0 0.0 0.00 0.00 0.00 99 1015.1
20260905100020 23 256 0.0 0.0 0.00 0.00 0.00 99 1015.0
20260905095514 23 255 0.0 0.0 0.00 0.00 0.00 99 1015.0
20260905095009 23 254 0.0 0.0 0.00 0.00 0.00 99 1014.9
20260905094504 23 257 0.0 0.0 0.00 0.00 0.00 99 1015.0
20260905094004 23 258 0.0 0.0 0.00 0.00 0.00 99 1015.0
20260905093458 23 260 0.0 0.0 0.00 0.00 0.00 99 1014.8
20260905092955 23 261 0.0 0.0 0.00 0.00 0.00 99 1015.1
20260905092449 23 240 0.0 0.0 0.00 0.00 0.00 99 1014.9
20260905091944 23 253 0.0 0.0 0.00 0.00 0.00 99 1015.1
20260905091439 23 242 0.0 0.0 0.00 0.00 0.00 99 1015.3
20260905090938 23 263 0.0 0.0 0.00 0.00 0.00 99 1015.0
20260905090434 23 261 0.0 0.0 0.00 0.00 0.00 99 1015.2
20260905085933 23 246 0.0 0.0 0.00 0.00 0.00 99 1015.0
20260905085432 23 263 0.0 0.0 0.00 0.00 0.00 99 1015.2
20260905084928 23 258 0.0 0.0 0.00 0.00 0.00 99 1015.2
20260905084428 23 251 0.0 0.0 0.00 0.00 0.00 99 1015.3
20260905083922 23 252 0.0 0.0 0.00 0.00 0.00 99 1015.0
20260905083418 23 262 0.0 0.0 0.00 0.00 0.00 99 1015.4
20260905082914 23 255 0.0 0.0 0.00 0.00 0.00 99 1015.3
20260905082409 24 255 0.0 0.0 0.00 0.00 0.00 99 1015.2
20260905081904 24 240 0.0 0.0 0.00 0.00 0.00 99 1015.4
20260905081359 24 274 0.0 0.0 0.00 0.00 0.00 99 1015.1
20260905080858 24 273 0.0 0.0 0.00 0.00 0.00 99 1015.2
20260905080353 24 256 0.0 0.0 0.00 0.00 0.00 99 1015.3
20260905075852 24 261 0.0 0.0 0.00 0.00 0.00 99 1015.4
20260905075351 24 242 0.0 0.0 0.00 0.00 0.00 99 1015.4
20260905074850 24 264 0.0 0.0 0.00 0.00 0.00 99 1015.5
20260905074347 24 246 0.0 0.0 0.00 0.00 0.00 99 1015.3
20260905073842 24 272 0.0 0.0 0.00 0.00 0.00 99 1015.3
20260905073337 24 270 0.0 0.0 0.00 0.00 0.00 99 1015.2
20260905072831 24 252 0.0 0.0 0.00 0.00 0.00 99 1015.4
20260905072321 24 253 0.0 0.0 0.00 0.00 0.00 99 1015.4
20260905071818 24 237 0.0 0.0 0.00 0.00 0.00 99 1015.5
20260905071314 24 253 0.0 0.0 0.00 0.00 0.00 99 1015.7
20260905070808 24 254 0.0 0.0 0.00 0.00 0.00 99 1015.6
20260905070304 24 254 0.0 0.0 0.00 0.00 0.00 99 1015.7
20260905065803 25 261 0.0 0.0 0.00 0.00 0.00 99 1015.6
20260905065256 25 275 0.0 0.0 0.00 0.00 0.00 99 1015.7
20260905064752 25 248 0.0 0.0 0.00 0.00 0.00 99 1015.7
20260905064248 25 240 0.0 0.0 0.00 0.00 0.00 99 1015.9
20260905063746 25 257 0.0 0.0 0.00 0.00 0.00 99 1015.6
20260905063242 25 258 0.0 0.0 0.00 0.00 0.00 99 1015.7
20260905062738 25 258 0.0 0.0 0.00 0.00 0.00 99 1016.0
20260905062237 25 258 0.0 0.0 0.00 0.00 0.00 99 1015.8
20260905061732 25 258 0.0 0.0 0.00 0.00 0.00 99 1015.8
20260905061226 25 258 0.0 0.0 0.00 0.00 0.00 99 1015.6
20260905060721 25 258 0.0 0.0 0.00 0.00 0.00 99 1015.6
20260905060218 25 247 0.0 0.0 0.00 0.00 0.00 99 1015.9
20260905055716 25 246 0.0 0.0 0.00 0.00 0.00 99 1015.8
20260905055212 25 246 0.0 0.0 0.00 0.00 0.00 99 1015.8
20260905054707 25 253 0.0 0.0 0.00 0.00 0.00 99 1016.0
20260905054203 25 254 0.0 0.0 0.00 0.00 0.00 99 1015.8
20260905053702 25 254 0.0 0.0 0.00 0.00 0.00 99 1015.9
20260905053156 25 254 0.0 0.0 0.00 0.00 0.00 99 1015.9
20260905052651 25 253 0.0 0.0 0.00 0.00 0.00 99 1016.0
20260905052146 25 256 0.0 0.0 0.00 0.00 0.00 99 1016.0
20260905051641 25 256 0.0 0.0 0.00 0.00 0.00 99 1016.0
20260905051137 25 257 0.0 0.0 0.00 0.00 0.00 99 1016.3
20260905050628 25 257 0.0 0.0 0.00 0.00 0.00 99 1016.1
20260905050125 25 257 0.0 0.0 0.00 0.00 0.00 99 1016.0
20260905045624 25 257 0.0 0.0 0.00 0.00 0.00 99 1016.3
20260905045120 25 257 0.0 0.0 0.00 0.00 0.00 99 1015.9
20260905044619 25 265 0.0 0.0 0.00 0.00 0.00 99 1016.1
20260905044114 25 276 0.0 0.0 0.00 0.00 0.00 99 1016.1
20260905043613 25 248 0.0 0.0 0.00 0.00 0.00 99 1016.0
20260905043109 26 239 0.0 0.0 0.00 0.00 0.00 99 1015.9
20260905042607 26 244 0.0 0.0 0.00 0.00 0.00 99 1016.1
20260905042102 26 244 0.0 0.0 0.00 0.00 0.00 99 1016.0
20260905041558 26 244 0.0 0.0 0.00 0.00 0.00 99 1016.1
20260905041053 26 245 0.0 0.0 0.00 0.00 0.00 98 1016.1
20260905040553 26 241 0.0 0.0 0.00 0.00 0.00 98 1016.0
20260905040051 26 251 0.0 0.0 0.00 0.00 0.00 98 1016.2
20260905035547 26 251 0.0 0.0 0.00 0.00 0.00 98 1016.2
20260905035044 26 251 0.0 0.0 0.00 0.00 0.00 97 1016.2
20260905034539 26 251 0.0 0.0 0.00 0.00 0.00 97 1016.0
20260905034039 26 251 0.0 0.0 0.00 0.00 0.00 97 1016.1
20260905033533 26 251 0.0 0.0 0.00 0.00 0.00 96 1016.0
20260905033029 26 251 0.0 0.0 0.00 0.00 0.00 96 1016.3
20260905032524 26 251 0.0 0.0 0.00 0.00 0.00 96 1016.0
20260905032019 26 251 0.0 0.0 0.00 0.00 0.00 96 1016.3
20260905031515 26 250 0.0 0.0 0.00 0.00 0.00 96 1015.9
20260905031014 26 251 0.0 0.0 0.00 0.00 0.00 95 1016.3
20260905030510 26 250 0.0 0.0 0.00 0.00 0.00 96 1016.1
20260905030009 26 250 0.0 0.0 0.00 0.00 0.00 95 1016.2
20260905025504 27 250 0.0 0.0 0.00 0.00 0.00 95 1016.1
20260905025001 27 249 0.0 0.0 0.00 0.00 0.00 95 1016.1
20260905024455 27 250 0.0 0.0 0.00 0.00 0.00 95 1016.2
20260905023951 27 250 0.0 0.0 0.00 0.00 0.00 94 1015.9
20260905023445 27 244 0.0 0.0 0.00 0.00 0.00 94 1016.1
20260905022944 27 246 0.0 0.0 0.00 0.00 0.00 93 1016.2